Content
SEND FEEDBACK

Daily
Averages
Monthly
Summary
France

AVIGNON, FRANCE


Home > Europe > France
Elevation: 187 feet     Latitude: 44 00N     Longitude: 004 45E

WEATHER
 
SELECT A DAY
Number of Records: 173,883;   Date Range: 5/17/04 - 11/27/14
 
SHARE

PRINT THIS DATA

[ ← Previous Day ]
WEATHER ALMANAC - JANUARY 21, 2013
[ Next Day → ]
[ °C ]   °F
Weather ElementAverageHighLow
Temperature38.5 °F50 °F (3:00 pm)30.2 °F (8:30 am)
Dewpoint32.3 °F37.4 °F (4:30 pm)30.2 °F (2:00 am)
Humidity80.3 %100 % (5:30 am)54 % (3:00 pm)
Barometer29.54 in29.68 in (10:30 pm)29.47 in (12:30 am)
Wind Speed4.1 mph10.4 mph (6:30 pm)
Weather ElementAverage
Visibility6.2 mi
Wind DirectionS (174.7 °)

Weather ElementTotal
Precipitation---
Heating Degree Days24.9 (Base 65)
Averaged from 47 records on January 21, 2013
WEATHER CONDITIONS BREAKOUT
WIND DIRECTION BREAKOUT
WEATHER BY HOUR - JANUARY 21, 2013
[ °C ]   °F
Local TimeTemperatureDewpointHumidityBarometerVisibilityWind DirectionWind SpeedGust SpeedPrecipitationEventsConditions
12:30 AM35.6 °F33.8 °F93 %29.47 in6.2 miNW (320°)8.1 mph
1:00 AM33.8 °F32.0 °F93 %29.47 in6.2 miNNW (340°)9.2 mph
1:30 AM33.8 °F32.0 °F93 %29.47 in6.2 miNNW (330°)6.9 mph
2:00 AM33.8 °F30.2 °F87 %29.47 in6.2 miNNW (330°)5.8 mph
2:30 AM32.0 °F30.2 °F93 %29.47 in6.2 miNNW (340°)6.9 mph
3:00 AM32.0 °F30.2 °F93 %29.47 in6.2 miNorth (360°)5.8 mph
3:30 AM32.0 °F30.2 °F93 %29.47 in6.2 miNNW (340°)3.5 mph
4:00 AM32.0 °F30.2 °F93 %29.47 in6.2 miNNW (340°)3.5 mph
4:30 AM32.0 °F30.2 °F93 %29.47 in6.2 miVariable2.3 mph
5:00 AM32.0 °F30.2 °F93 %29.47 in6.2 miCalm
5:30 AM32.0 °F32.0 °F100 %29.50 in6.2 miWSW (250°)5.8 mph
6:00 AM32.0 °F32.0 °F100 %29.47 in6.2 miWest (280°)3.5 mphOvercast
6:30 AM32.0 °F30.2 °F93 %29.47 in6.2 miNorth (350°)2.3 mphOvercast
7:00 AM33.8 °F30.2 °F87 %29.50 in6.2 miVariable1.2 mphOvercast
7:30 AM32.0 °F30.2 °F93 %29.50 in6.2 miCalmOvercast
8:00 AM32.0 °F30.2 °F93 %29.50 in6.2 miVariable2.3 mph
8:30 AM30.2 °F30.2 °F100 %29.50 in6.2 miSouth (180°)5.8 mph
9:00 AM32.0 °F30.2 °F93 %29.53 in6.2 miVariable1.2 mphMostly Cloudy
9:30 AM32.0 °F32.0 °F100 %29.53 in6.2 miCalm
10:00 AM33.8 °F32.0 °F93 %29.53 in6.2 miSE (140°)3.5 mph
10:30 AM35.6 °F33.8 °F93 %29.53 in5.0 miVariable1.2 mph
11:00 AM37.4 °F33.8 °F87 %29.56 in6.2 miNorth (350°)3.5 mph
11:30 AM39.2 °F33.8 °F81 %29.56 in6.2 miNorth (10°)3.5 mph
12:00 PM41.0 °F33.8 °F76 %29.56 in6.2 miNNW (340°)4.6 mph
12:30 PM42.8 °F33.8 °F70 %29.56 in6.2 miVariable2.3 mph
1:00 PM44.6 °F33.8 °F66 %29.53 in6.2 miVariable2.3 mph
1:30 PM46.4 °F33.8 °F62 %29.53 in6.2 miWest (270°)3.5 mph
2:00 PM48.2 °F33.8 °F58 %29.53 in6.2 miVariable2.3 mph
2:30 PM48.2 °F33.8 °F58 %29.53 in6.2 miVariable3.5 mph
3:00 PM50.0 °F33.8 °F54 %29.53 in6.2 miVariable3.5 mph
3:30 PM50.0 °F35.6 °F58 %29.53 in6.2 miCalm
4:00 PM48.2 °F33.8 °F58 %29.53 in6.2 miCalm
4:30 PM48.2 °F37.4 °F66 %29.56 in6.2 miWest (270°)2.3 mphScattered Clouds
5:00 PM48.2 °F33.8 °F58 %29.56 in6.2 miWNW (290°)6.9 mphPartly Cloudy
5:30 PM46.4 °F32.0 °F57 %29.56 in6.2 miWNW (290°)6.9 mph
6:00 PM44.6 °F32.0 °F61 %29.59 in6.2 miWNW (290°)9.2 mph
6:30 PM44.6 °F32.0 °F61 %29.59 in6.2 miWest (280°)10.4 mph
7:00 PM42.8 °F32.0 °F66 %29.59 in6.2 miWest (270°)6.9 mph
7:30 PM42.8 °F33.8 °F70 %29.62 in6.2 miWest (270°)8.1 mph
8:00 PM41.0 °F33.8 °F76 %29.62 in6.2 miWest (270°)6.9 mph
8:30 PM41.0 °F33.8 °F76 %29.65 in6.2 miWNW (290°)3.5 mph
9:00 PM39.2 °F32.0 °F75 %29.65 in6.2 miWNW (290°)4.6 mph
9:30 PM39.2 °F32.0 °F75 %29.65 in6.2 miVariable3.5 mph
10:00 PM37.4 °F32.0 °F81 %29.65 in6.2 miVariable3.5 mph
10:30 PM35.6 °F32.0 °F87 %29.68 in6.2 miCalm
11:00 PM37.4 °F33.8 °F87 %29.65 in6.2 miWSW (250°)6.9 mph
11:30 PM37.4 °F32.0 °F81 %29.68 in6.2 miWest (280°)4.6 mph
Hourly data recorded from LFMV, located miles away from Avignon, France







STORIES FROM OUR PARTNERS